www.pogodaiklimat.ru

Погода и климат >> Архив погоды >> Россия >> Якутия >> Охотский Перевоз


ПОГОДА в Охотском Перевозе

  • Прогноз погоды в Охотском Перевозе
  • Монитор погоды в Охотском Перевозе
  • Климат города

АРХИВ ПОГОДЫ в Охотском Перевозе

Время (UTC), дата Ветер
(напр.,м/с)
 
Видим.   Явления Облачность Т
(С)
Тd
(С)
f
(%)
Тe
(С)
Тes
(С)
Комфортность P
(гПа)
Po
(гПа)
Тmin
(С)
Tmax
(С)
R
(мм)
R24
(мм)
S
(см)
09 19.06 СЗ 1 20 км 4/4 600 м
[Cu med, cong]
+27.2 +8.0 30 +27 +29 жарко 1005.7 989.8 +28.5
12 19.06 штиль 0 20 км 4/4 600 м
[Sc diur, vesp]
+23.8 +13.1 51 +26 +26 жарко 1005.8 989.7
15 19.06 штиль 0 10 км 5/5 1000 м
[Sc]
+15.8 +13.3 85 +16 +16 1006.8 990.2
18 19.06 Ю 1 20 км 8/8 1000 м
[Sc]
+13.2 +11.7 91 +13 +13 1007.1 990.4
21 19.06 Ю 2 20 км 8/8 600 м
[Cu Sc]
+14.0 +11.8 87 +13 +14 1007.8 991.1 +12.5
00 20.06 Ю 3 20 км 8/8 1000 м
[Sc]
+18.3 +10.3 60 +19 +20 1007.3 990.9
03 20.06 СЗ 3 20 км 10/0
[As op]
+21.1 +2.7 30 +21 +23 комфорт 1007.1 990.8
06 20.06 З 3 20 км 10/0
[Ac As]
+20.5 +4.5 35 +21 +24 комфорт 1006.5 990.2
09 20.06 СЗ 3 20 км 10/0
[Ac As]
+20.6 +4.6 35 +22 +22 комфорт 1004.8 988.5 +21.8
12 20.06 ЮЗ 2 20 км 10/10 1000 м
[Sc]
+17.6 +9.0 57 +18 +18 1004.7 988.2
15 20.06 Ю 2 10 км в посл. час дождь 10/10 1000 м
[Sc]
+14.7 +10.9 78 +14 +14 1003.4 986.9
18 20.06 ЮЗ 3 20 км в посл. час дождь 10/10 1000 м
[Sc]
+13.0 +11.9 93 +12 +12 999.7 983.1
21 20.06 ЮЗ 1 20 км {дождь} 10/10 1000 м
[Sc]
+13.1 +12.5 96 +13 +13 997.8 981.3 +13.0 3
00 21.06 С 6 20 км {дождь} 10/10 600 м
[Frnb]
+14.8 +11.5 81 +13 +13 999.4 982.9
03 21.06 С 4 20 км 9/9 600 м
[Cu Sc]
+16.3 +8.7 61 +16 +17 1001.9 985.4
06 21.06 С 5 20 км 8/8 600 м
[Cu med, cong]
+20.4 +8.1 45 +21 +22 комфорт 1002.4 986.2
09 21.06 С 4 50 км 4/4 600 м
[Cu Sc]
+22.6 +4.6 31 +23 +24 комфорт 1002.4 986.3 +22.6
12 21.06 С 2 20 км 1/1 1000 м
[Sc]
+20.8 +4.7 35 +22 +22 комфорт 1003.3 987.1
15 21.06 Ю 1 10 км 5/0
[Cs]
+12.2 +7.7 74 +12 +12 1004.5 987.7
18 21.06 Ю 1 20 км 1/0
[Ci fib]
+7.9 +7.5 97 +7 +7 1005.1 988.1
21 21.06 штиль 0 20 км 5/0
[Ci fib]
+12.6 +9.2 80 +12 +16 1005.6 988.8 +7.3
00 22.06 Ю 2 50 км 8/0
[Cs]
+15.9 +8.0 59 +16 +24 1005.5 988.9
03 22.06 Ю 3 50 км 9/0
[Cs]
+21.8 +9.8 46 +23 +33 комфорт 1004.0 987.8
06 22.06 СВ 2 50 км 6/0
[Cs]
+23.8 +8.5 38 +24 +33 комфорт 1002.8 986.8
09 22.06 СВ 2 20 км 9/9 600 м
[Cu Sc]
+21.9 +12.4 55 +24 +25 комфорт 1002.5 986.4 +26.0
12 22.06 С 1 20 км 8/1 1000 м
[Sc Ci fib]
+21.8 +10.8 50 +24 +24 комфорт 1002.7 986.6
15 22.06 С 1 10 км 3/0
[Ci fib]
+12.6 +10.3 86 +13 +13 1003.4 986.8
18 22.06 СЗ 1 20 км 4/0
[Ci fib]
+9.3 +8.5 95 +9 +9 1004.7 987.8
21 22.06 штиль 0 20 км 8/0
[Ci fib]
+12.4 +8.4 77 +12 +15 1005.7 988.9 +9.0
00 23.06 Ю 1 50 км 8/0
[Cs]
+17.3 +11.2 67 +18 +28 1005.7 989.2
03 23.06 Ю 4 20 км 9/0
[Cs]
+23.6 +9.2 40 +24 +32 комфорт 1005.4 989.3
06 23.06 ЮЗ 3 20 км 1/0
[Ci fib]
+27.3 +8.2 30 +27 +35 жарко 1004.7 988.8
09 23.06 ЮЗ 4 20 км ясно +27.3 +6.4 26 +27 +28 жарко 1004.2 988.3 +28.0
12 23.06 ЮЗ 4 20 км ясно +24.4 +7.8 35 +25 +25 комфорт 1004.7 988.6
15 23.06 ЮЗ 5 10 км ясно +21.2 +5.3 35 +22 +22 комфорт 1005.9 989.7
18 23.06 ЮЗ 6 20 км 1/1 1000 м
[Sc]
+17.2 +5.4 46 +16 +16 1006.9 990.4
21 23.06 ЮЗ 5 20 км 5/0
[Cs]
+15.2 +5.6 53 +14 +15 1007.0 990.4 +15.2
00 24.06 Ю 7 10 км гроза, ливневой дождь 10/10 600 м
[Cb calv]
+15.2 +6.6 56 +14 +14 1007.8 991.2
03 24.06 ЮЗ 4 10 км гроза, ливневой дождь 10/9 600 м
[Cb cap Ci sp]
+19.0 +8.6 51 +20 +21 1006.4 989.5
06 24.06 Ю 4 20 км {гроза, ливн. осадки} 10/10 600 м
[Cb cap]
+19.0 +9.6 54 +20 +20 1005.4 989.0
09 24.06 ЮЗ 2 20 км 9/8 600 м
[Cb cap Ac cuf]
+21.4 +7.8 42 +22 +23 комфорт 1004.8 988.6 +21.7 0.1
12 24.06 ЮЗ 2 20 км 9/3 1000 м
[Sc As op Ci fib]
+19.9 +8.7 48 +22 +22 комфорт 1005.0 988.7
15 24.06 ЮЗ 1 10 км 8/8 600 м
[Cu Sc]
+15.3 +11.0 76 +16 +16 1005.2 988.6
18 24.06 СВ 1 20 км 9/9 1000 м
[Sc]
+12.8 +11.3 91 +13 +13 1005.6 988.9
21 24.06 СВ 2 20 км 9/9 1000 м
[Sc]
+15.0 +12.1 83 +15 +15 1006.2 989.6 +12.7
00 25.06 СВ 3 50 км 9/9 1000 м
[Sc]
+15.4 +8.8 65 +15 +16 1006.9 990.3
03 25.06 СВ 5 50 км 8/8 1000 м
[Sc]
+17.8 +9.4 58 +17 +19 1007.4 990.9
06 25.06 В 5 50 км 3/3 1000 м
[Sc]
+21.3 +10.5 50 +23 +26 комфорт 1006.0 989.8
09 25.06 СВ 4 50 км 4/4 600 м
[Cu Sc]
+21.7 +10.2 48 +23 +24 комфорт 1005.7 989.5 +22.0
12 25.06 С 3 20 км 4/1 1000 м
[Sc Ci fib]
+20.5 +7.5 43 +22 +22 комфорт 1006.1 989.8
15 25.06 штиль 0 10 км 1/0
[Ci fib]
+14.1 +7.6 65 +14 +14 1006.8 990.1
18 25.06 С 1 20 км ясно +8.2 +6.7 90 +7 +7 1007.8 990.8
21 25.06 штиль 0 20 км ясно +12.6 +8.6 77 +12 +16 1008.8 992.0 +8.0
00 26.06 ЮВ 1 50 км ясно +17.9 +11.3 65 +19 +30 1009.8 993.3
03 26.06 ЮВ 3 50 км ясно +24.0 +13.8 53 +26 +38 жарко 1008.8 992.6
06 26.06 В 1 50 км 1/1 600 м
[Cu med, cong]
+26.7 +11.3 38 +28 +38 жарко 1007.5 991.6

 

Местоположение метеостанции Охотский Перевоз (Якутия, Россия): широта 61.87 долгота 135.50 высота над уровнем моря 141 м.

В архиве по умолчанию представлена погода в Охотском Перевозе за последнюю неделю. Архивные данные за месяц целиком и за предыдущие месяцы, начиная с января 2011 года, Вы можете получить, выбрав интересующий диапазон дат из раскрывающегося списка и нажав кнопку "Ввод!".

Внимание! Время в таблицах - всемирное. Для получения местного времени необходимо прибавить поправку, которая в Охотском Перевозе равна 9 ч.

Смотрите также архив погоды в соседних городах и на ближайших метеорологических станциях:

Погода в Ытык-Кюёле (Якутия, Россия) (118 км)
Погода в Крест-Хальджае (Якутия, Россия) (120 км)
Погода в Теплом Ключе (Якутия, Россия) (121 км)
Погода в Чурапче (Якутия, Россия) (153 км)
Погода в Усть-Мае (Якутия, Россия) (179 км)
Погода в Амге (Якутия, Россия) (220 км)
Погода в Томпо (Якутия, Россия) (232 км)
Погода в Верхоянском Перевозе (Якутия, Россия) (241 км)
Погода в Восточной (Якутия, Россия) (259 км)
Погода в Югоренке (Якутия, Россия) (260 км)

Пояснения к столбцам:

Ветер - указаны скорость ветра в м/с - средняя за 10 мин, порывы в срок и между сроками (в фигурных скобках) и направление, откуда дует ветер: С - северный, СВ - северо-восточный, В - восточный, ЮВ - юго-восточный, Ю - южный, ЮЗ - юго-западный, З - западный, СЗ - северо-западный.
Видимость - горизонтальная дальность видимости в метрах или километрах. При видимости от 1 до 10 км при отсутствии осадков обычно наблюдается дымка, при ухудшении видимости до 1 км и менее - туман. В сухую погоду видимость может ухудшаться дымом, пылью или мглою.
Явления - указаны атмосферные явления, наблюдавшиеся в срок или в последний час перед сроком; фигурными скобками обозначены явления, наблюдавшиеся между сроками (за 1-3 часа до срока); квадратными скобками обозначены град или гололедные отложения с указанием их диаметра в мм.
Облачность - указаны через наклонную черту общая и нижняя облачность в баллах и высота нижней границы облаков в метрах; квадратными скобками обозначены формы облаков: Ci - перистые, Cs - перисто-слоистые, Cc - перисто-кучевые, Ac - высококучевые, As - высокослоистые, Sc - слоисто-кучевые, Ns - слоисто-дождевые, Cu - кучевые, Cb - кучево-дождевые. Подробнее классификацию облаков см. в Атласе облаков (PDF).
T - Температура воздуха - температура, измеренная на высоте 2 м над землей.
Td - Температура точки росы - температура, при понижении до которой содержащийся в воздухе водяной пар достигнет насыщения.
f - Относительная влажность воздуха - влажноcть воздуха, измеренная на высоте 2 м над землей.
Te - Эффективная температура - температура, которую ощущает одетый по сезону человек в тени. Характеристика душности погоды. При расчете учитывается влияние влажности воздуха и скорости ветра на теплоощущения человека.
Tes - Эффективная температура на солнце - температура, которую ощущает человек, с поправкой на солнечный нагрев. Характеристика знойности погоды. Зависит от высоты солнца над горизонтом, облачности и скорости ветра. Ночью, в пасмурную погоду, а также при ветре 12 м/с и более поправка равна нулю.
P - Атмосферное давление - приведенное к уровню моря атмосферное давление.
Po - Атмосферное давление - измеренное на уровне метеостанции атмосферное давление.
Tmin - Минимальная температура - минимум температуры воздуха на высоте 2 м над землей.
Tmax - Максимальная температура - максимум температуры воздуха на высоте 2 м над землей.
R - Количество осадков - Количество выпавших осадков за период времени, мм. При наведении курсора мыши на число - период времени, за который выпало указанное количество осадков.
R24 - Количество осадков - Количество выпавших осадков за 24 часа, мм.
S - Снежный покров - Высота снежного покрова, см. При наведении курсора мыши на число - состояние снежного покрова и степень покрытия местности в баллах.